Stockton, CA

9:31 AM PST on December 08, 2016 (GMT -0800)
Stockton Metro

Weather History for KSCK - February, 2014

Change the Weather History Date:

Thursday, February 20, 2014

  Actual Average Record
Temperature  
Mean Temperature 54 °F -  
Max Temperature 65 °F 62 °F 73 °F (1991)
Min Temperature 42 °F 41 °F 28 °F (1955)
Degree Days  
Heating Degree Days 11 14  
Month to date heating degree days 264 306  
Since 1 July heating degree days 1764 1961  
Cooling Degree Days 0 0  
Month to date cooling degree days 0 0  
Year to date cooling degree days 0 0  
Growing Degree Days 4 (Base 50)    
Moisture  
Dew Point 37 °F    
Average Humidity 59    
Maximum Humidity 86    
Minimum Humidity 31    
Precipitation  
Precipitation 0.00 in 0.09 in 0.84 in (1979)
Month to date precipitation 1.25 1.85  
Year to date precipitation 1.46 4.59  
Since 1 July precipitation 3.17  
Snow  
Snow 0.00 in - - ()
Month to date snowfall 0.0  
Since 1 July snowfall 0.0  
Snow Depth -    
Sea Level Pressure  
Sea Level Pressure 30.16 in    
Wind  
Wind Speed 6 mph (NW)    
Max Wind Speed 12 mph    
Max Gust Speed 16 mph    
Visibility 10 miles    
Events      
T = Trace of Precipitation, MM = Missing Value Source: NWS Daily Summary

Daily Weather History Graph

Daily Weather History Graph

Search for Another Location

Airport or City:

Trip Planner

Search our weather history database for the weather conditions in past years. The results will help you decide how hot, cold, wet, or windy it might be!

Date:

Astronomy

Feb. 20, 2014 Rise Set
Actual Time 6:48 AM PST 5:49 PM PST
Civil Twilight 6:21 AM PST 6:15 PM PST
Nautical Twilight 5:51 AM PST 6:46 PM PST
Astronomical Twilight 5:20 AM PST 7:17 PM PST
Moon 11:42 PM PST (2/20) 9:40 AM PST (2/20)
Length of Visible Light 11h 54m
Length of Day
11h 00m
Waning Gibbous, 70% of the Moon is Illuminated
Feb 20
Waning Gibbous
Feb 22
Last Quarter
Mar 1
New
Mar 8
First Quarter
Mar 16
Full

Hourly Weather History & Observations

Time (PST) Temp. Windchill Dew Point Humidity Pressure Visibility Wind Dir Wind Speed Gust Speed Precip Events Conditions
12:55 AM 46.9 °F - 43.0 °F 86% 30.17 in 10.0 mi West 4.6 mph - N/A   Clear
1:55 AM 44.1 °F 40.1 °F 39.9 °F 85% 30.17 in 10.0 mi NNW 6.9 mph - N/A   Clear
2:55 AM 45.0 °F 40.1 °F 39.9 °F 82% 30.17 in 10.0 mi WNW 9.2 mph - N/A   Clear
3:55 AM 46.9 °F - 34.0 °F 61% 30.17 in 10.0 mi NW 10.4 mph - N/A   Clear
4:55 AM 46.9 °F - 34.0 °F 61% 30.17 in 10.0 mi NW 10.4 mph - N/A   Clear
5:55 AM 45.0 °F 41.2 °F 34.0 °F 65% 30.18 in 10.0 mi NW 6.9 mph - N/A   Clear
6:55 AM 44.1 °F 39.0 °F 35.1 °F 71% 30.19 in 10.0 mi WNW 9.2 mph - N/A   Clear
7:55 AM 46.9 °F - 37.0 °F 68% 30.20 in 10.0 mi NW 8.1 mph - N/A   Clear
8:55 AM 51.1 °F - 36.0 °F 56% 30.21 in 10.0 mi WNW 5.8 mph - N/A   Clear
9:55 AM 54.0 °F - 36.0 °F 51% 30.22 in 10.0 mi NNW 5.8 mph - N/A   Clear
10:55 AM 55.9 °F - 37.0 °F 49% 30.22 in 10.0 mi West 9.2 mph - N/A   Clear
11:55 AM 59.0 °F - 36.0 °F 42% 30.20 in 10.0 mi NW 8.1 mph - N/A   Clear
12:55 PM 62.1 °F - 35.1 °F 37% 30.17 in 10.0 mi NNW 6.9 mph - N/A   Clear
1:55 PM 64.0 °F - 34.0 °F 33% 30.15 in 10.0 mi NW 8.1 mph - N/A   Clear
2:55 PM 64.9 °F - 36.0 °F 34% 30.13 in 10.0 mi North 6.9 mph - N/A   Clear
3:55 PM 64.0 °F - 36.0 °F 35% 30.12 in 10.0 mi NNW 5.8 mph - N/A   Clear
4:55 PM 63.0 °F - 37.9 °F 40% 30.11 in 10.0 mi Calm Calm - N/A   Clear
5:55 PM 57.0 °F - 39.9 °F 53% 30.11 in 10.0 mi WSW 5.8 mph - N/A   Clear
6:55 PM 57.0 °F - 39.0 °F 51% 30.11 in 10.0 mi West 4.6 mph - N/A   Clear
7:55 PM 53.1 °F - 37.9 °F 57% 30.12 in 10.0 mi Calm Calm - N/A   Clear
8:55 PM 50.0 °F - 39.0 °F 66% 30.12 in 10.0 mi Calm Calm - N/A   Clear
9:55 PM 48.0 °F - 39.0 °F 71% 30.12 in 10.0 mi Calm Calm - N/A   Clear
10:55 PM 46.9 °F - 37.9 °F 71% 30.11 in 10.0 mi Calm Calm - N/A   Clear
11:55 PM 46.9 °F - 39.0 °F 74% 30.10 in 10.0 mi ENE 6.9 mph - N/A   Clear